StationID,Date,MaxTemp,MinTemp,Precipitation,Snowfall,SnowDepth
"CA001022688","1914-07-01",73.94,66.92,0.00,0.00,
"CA001022688","1914-07-02",73.94,62.96,0.00,0.00,
"CA001022688","1914-07-03",71.06,62.96,0.00,0.00,
"CA001022688","1914-07-04",66.92,55.04,0.00,0.00,
"CA001022688","1914-07-05",77.00,57.02,0.00,0.00,
"CA001022688","1914-07-06",71.96,55.94,0.00,0.00,
"CA001022688","1914-07-07",71.06,59.00,0.00,0.00,
"CA001022688","1914-07-08",68.00,60.08,0.00,0.00,
"CA001022688","1914-07-09",73.04,60.08,0.00,0.00,
"CA001022688","1914-07-10",73.04,62.96,0.00,0.00,
"CA001022688","1914-07-11",75.92,64.94,0.00,0.00,
"CA001022688","1914-07-12",73.04,64.04,0.00,0.00,
"CA001022688","1914-07-13",64.94,62.96,0.00,0.00,
"CA001022688","1914-07-14",62.06,59.00,0.00,0.00,
"CA001022688","1914-07-15",71.96,57.92,0.00,0.00,
"CA001022688","1914-07-16",69.98,60.98,0.00,0.00,
"CA001022688","1914-07-17",71.96,64.04,0.00,0.00,
"CA001022688","1914-07-18",69.98,64.04,0.00,0.00,
"CA001022688","1914-07-19",71.96,64.04,0.00,0.00,
"CA001022688","1914-07-20",64.04,57.02,0.00,0.00,
"CA001022688","1914-07-21",62.96,57.02,0.00,0.00,
"CA001022688","1914-07-22",69.08,57.92,0.00,0.00,
"CA001022688","1914-07-23",69.08,60.98,0.00,0.00,
"CA001022688","1914-07-24",64.94,59.00,0.00,0.00,
"CA001022688","1914-07-25",64.04,57.92,10.00,0.00,
"CA001022688","1914-07-26",62.06,57.92,0.00,0.00,
"CA001022688","1914-07-27",62.96,53.96,0.00,0.00,
"CA001022688","1914-07-28",60.98,57.02,0.00,0.00,
"CA001022688","1914-07-29",69.98,59.00,0.00,0.00,
"CA001022688","1914-07-30",73.94,57.92,0.00,0.00,
"CA001022688","1914-07-31",69.08,57.92,0.00,0.00,
"CA001022688","1914-08-01",69.08,59.00,0.00,0.00,
"CA001022688","1914-08-02",73.94,51.98,0.00,0.00,
"CA001022688","1914-08-03",68.00,42.08,0.00,0.00,
"CA001022688","1914-08-04",75.92,59.00,0.00,0.00,
"CA001022688","1914-08-05",71.96,57.92,0.00,0.00,
"CA001022688","1914-08-06",69.98,57.92,30.00,0.00,
"CA001022688","1914-08-07",64.94,57.02,5.00,0.00,
"CA001022688","1914-08-08",66.02,51.98,13.00,0.00,
"CA001022688","1914-08-09",68.00,55.94,0.00,0.00,
"CA001022688","1914-08-10",71.06,60.08,0.00,0.00,
"CA001022688","1914-08-11",71.06,60.98,0.00,0.00,
"CA001022688","1914-08-12",68.00,60.08,0.00,0.00,
"CA001022688","1914-08-13",71.06,62.06,0.00,0.00,
"CA001022688","1914-08-14",69.98,60.08,0.00,0.00,
"CA001022688","1914-08-15",64.94,60.08,0.00,0.00,
"CA001022688","1914-08-16",57.92,55.94,0.00,0.00,
"CA001022688","1914-08-17",64.94,57.92,0.00,0.00,
"CA001022688","1914-08-18",69.08,57.02,0.00,0.00,
"CA001022688","1914-08-19",71.06,59.00,0.00,0.00,
"CA001022688","1914-08-20",69.08,62.96,0.00,0.00,
"CA001022688","1914-08-21",62.06,57.92,0.00,0.00,
"CA001022688","1914-08-22",64.94,55.94,0.00,0.00,
"CA001022688","1914-08-23",71.06,59.00,0.00,0.00,
"CA001022688","1914-08-24",71.06,57.02,0.00,0.00,
"CA001022688","1914-08-25",69.98,59.00,0.00,0.00,
"CA001022688","1914-08-26",69.98,62.06,0.00,0.00,
"CA001022688","1914-08-27",66.02,57.92,0.00,0.00,
"CA001022688","1914-08-28",62.96,57.92,0.00,0.00,
"CA001022688","1914-08-29",64.94,55.94,0.00,0.00,
"CA001022688","1914-08-30",64.94,57.92,0.00,0.00,
"CA001022688","1914-08-31",64.94,57.02,0.00,0.00,
"CA001022688","1914-09-01",68.00,55.94,0.00,0.00,
"CA001022688","1914-09-02",64.04,51.98,0.00,0.00,
"CA001022688","1914-09-03",57.92,55.04,0.00,0.00,
"CA001022688","1914-09-04",66.02,53.06,0.00,0.00,
"CA001022688","1914-09-05",64.04,53.96,0.00,0.00,
"CA001022688","1914-09-06",60.08,55.04,0.00,0.00,
"CA001022688","1914-09-07",59.00,53.96,13.00,0.00,
"CA001022688","1914-09-08",68.00,51.08,102.00,0.00,
"CA001022688","1914-09-09",55.94,48.92,5.00,0.00,
"CA001022688","1914-09-10",59.00,53.06,0.00,0.00,
"CA001022688","1914-09-11",59.00,48.02,20.00,0.00,
"CA001022688","1914-09-12",60.08,51.98,0.00,0.00,
"CA001022688","1914-09-13",57.02,53.96,0.00,0.00,
"CA001022688","1914-09-14",57.92,48.92,58.00,0.00,
"CA001022688","1914-09-15",55.94,48.92,30.00,0.00,
"CA001022688","1914-09-16",55.94,50.00,51.00,0.00,
"CA001022688","1914-09-17",57.02,51.08,64.00,0.00,
"CA001022688","1914-09-18",57.92,50.00,198.00,0.00,
"CA001022688","1914-09-19",55.04,51.08,38.00,0.00,
"CA001022688","1914-09-20",55.94,51.08,23.00,0.00,
"CA001022688","1914-09-21",57.02,51.08,0.00,0.00,
"CA001022688","1914-09-22",66.92,51.98,0.00,0.00,
"CA001022688","1914-09-23",62.96,53.06,0.00,0.00,
"CA001022688","1914-09-24",62.96,53.06,0.00,0.00,
"CA001022688","1914-09-25",57.02,51.08,0.00,0.00,
"CA001022688","1914-09-26",66.02,53.96,206.00,0.00,
"CA001022688","1914-09-27",55.94,51.98,18.00,0.00,
"CA001022688","1914-09-28",55.04,48.02,0.00,0.00,
"CA001022688","1914-09-29",53.06,51.98,38.00,0.00,
"CA001022688","1914-09-30",55.94,50.00,23.00,0.00,
"CA001022688","1914-10-01",48.92,46.94,53.00,0.00,
"CA001022688","1914-10-02",53.96,46.04,18.00,0.00,
"CA001022688","1914-10-03",51.98,46.94,0.00,0.00,
"CA001022688","1914-10-04",51.98,46.94,0.00,0.00,
"CA001022688","1914-10-05",53.96,50.00,0.00,0.00,
"CA001022688","1914-10-06",55.94,48.92,0.00,0.00,
"CA001022688","1914-10-07",57.02,53.06,0.00,0.00,
"CA001022688","1914-10-08",53.96,44.96,0.00,0.00,
"CA001022688","1914-10-09",57.02,51.08,28.00,0.00,
"CA001022688","1914-10-10",55.04,51.98,58.00,0.00,
"CA001022688","1914-10-11",53.06,50.00,0.00,0.00,
"CA001022688","1914-10-12",55.04,50.00,168.00,0.00,
"CA001022688","1914-10-13",55.04,51.08,137.00,0.00,
"CA001022688","1914-10-14",55.04,51.98,0.00,0.00,
"CA001022688","1914-10-15",55.94,53.06,0.00,0.00,
"CA001022688","1914-10-16",55.04,51.08,234.00,0.00,
"CA001022688","1914-10-17",51.98,50.00,43.00,0.00,
"CA001022688","1914-10-18",51.98,50.00,99.00,0.00,
"CA001022688","1914-10-19",55.04,48.02,66.00,0.00,
"CA001022688","1914-10-20",57.92,48.92,5.00,0.00,
"CA001022688","1914-10-21",51.08,48.92,0.00,0.00,
"CA001022688","1914-10-22",53.96,44.96,0.00,0.00,
"CA001022688","1914-10-23",55.04,50.00,0.00,0.00,
"CA001022688","1914-10-24",51.98,46.04,0.00,0.00,
"CA001022688","1914-10-25",53.06,48.92,0.00,0.00,
"CA001022688","1914-10-26",55.04,48.02,0.00,0.00,
"CA001022688","1914-10-27",53.96,48.02,0.00,0.00,
"CA001022688","1914-10-28",51.08,46.94,0.00,0.00,
"CA001022688","1914-10-29",53.06,48.92,0.00,0.00,
"CA001022688","1914-10-30",51.98,51.98,86.00,0.00,
"CA001022688","1914-10-31",51.98,48.92,69.00,0.00,
"CA001022688","1914-11-01",51.98,46.94,345.00,0.00,
"CA001022688","1914-11-02",48.92,48.02,94.00,0.00,
"CA001022688","1914-11-03",48.02,46.04,109.00,0.00,
"CA001022688","1914-11-04",48.92,44.96,23.00,0.00,
"CA001022688","1914-11-05",46.94,44.06,5.00,0.00,
"CA001022688","1914-11-06",46.04,44.06,25.00,0.00,
"CA001022688","1914-11-07",48.92,42.08,13.00,0.00,
"CA001022688","1914-11-08",50.00,46.94,5.00,0.00,
"CA001022688","1914-11-09",50.00,46.94,0.00,0.00,
"CA001022688","1914-11-10",48.92,46.94,58.00,0.00,
"CA001022688","1914-11-11",50.00,44.96,84.00,0.00,
"CA001022688","1914-11-12",44.06,41.00,0.00,0.00,
"CA001022688","1914-11-13",46.94,39.92,292.00,0.00,
"CA001022688","1914-11-14",44.06,39.02,0.00,0.00,
"CA001022688","1914-11-15",44.96,35.96,0.00,0.00,
"CA001022688","1914-11-16",42.08,35.06,41.00,0.00,
"CA001022688","1914-11-17",44.06,39.02,0.00,0.00,
"CA001022688","1914-11-18",46.94,35.96,0.00,0.00,
"CA001022688","1914-11-19",48.92,44.06,79.00,0.00,
"CA001022688","1914-11-20",48.02,46.04,107.00,0.00,
"CA001022688","1914-11-21",50.00,46.94,0.00,0.00,
"CA001022688","1914-11-22",50.00,46.04,30.00,0.00,
"CA001022688","1914-11-23",50.00,46.94,5.00,0.00,
"CA001022688","1914-11-24",51.98,48.92,8.00,0.00,
"CA001022688","1914-11-25",50.00,48.02,13.00,0.00,
"CA001022688","1914-11-26",46.94,42.08,43.00,0.00,
"CA001022688","1914-11-27",50.00,44.06,30.00,0.00,
"CA001022688","1914-11-28",44.06,39.92,36.00,0.00,
"CA001022688","1914-11-29",48.92,39.02,3.00,0.00,
"CA001022688","1914-11-30",46.04,39.02,114.00,0.00,
"CA001022688","1914-12-01",50.00,42.08,152.00,0.00,
"CA001022688","1914-12-02",44.96,39.92,18.00,0.00,
"CA001022688","1914-12-03",46.04,42.08,107.00,0.00,
"CA001022688","1914-12-04",44.96,42.08,0.00,0.00,
"CA001022688","1914-12-05",44.06,39.92,0.00,0.00,
"CA001022688","1914-12-06",44.06,37.94,30.00,0.00,
"CA001022688","1914-12-07",46.04,42.08,0.00,0.00,
"CA001022688","1914-12-08",46.94,39.02,0.00,0.00,
"CA001022688","1914-12-09",48.02,41.00,0.00,0.00,
"CA001022688","1914-12-10",42.08,37.94,0.00,0.00,
"CA001022688","1914-12-11",42.98,33.98,0.00,0.00,
"CA001022688","1914-12-12",42.08,33.98,0.00,0.00,
"CA001022688","1914-12-13",39.92,32.00,0.00,0.00,
"CA001022688","1914-12-14",37.04,33.08,0.00,0.00,
"CA001022688","1914-12-15",42.08,35.06,0.00,0.00,
"CA001022688","1914-12-16",39.02,33.08,0.00,0.00,
"CA001022688","1914-12-17",39.02,33.98,0.00,0.00,
"CA001022688","1914-12-18",39.92,33.98,0.00,0.00,
"CA001022688","1914-12-19",41.00,35.06,0.00,0.00,
"CA001022688","1914-12-20",42.98,33.98,0.00,0.00,
"CA001022688","1914-12-21",39.02,35.06,0.00,0.00,
"CA001022688","1914-12-22",42.08,37.94,0.00,0.00,
"CA001022688","1914-12-23",42.08,39.92,0.00,0.00,
"CA001022688","1914-12-24",44.06,39.02,0.00,0.00,
"CA001022688","1914-12-25",42.08,37.94,0.00,0.00,
"CA001022688","1914-12-26",42.98,39.92,46.00,0.00,
"CA001022688","1914-12-27",42.08,37.94,36.00,0.00,
"CA001022688","1914-12-28",42.98,39.92,28.00,0.00,
"CA001022688","1914-12-29",42.98,39.02,25.00,0.00,
"CA001022688","1914-12-30",46.94,39.92,43.00,0.00,
"CA001022688","1914-12-31",44.96,41.00,0.00,0.00,
"CA001022688","1915-01-01",48.92,44.06,41.00,0.00,
"CA001022688","1915-01-02",46.94,42.98,69.00,0.00,
"CA001022688","1915-01-03",42.98,41.00,43.00,0.00,
"CA001022688","1915-01-04",42.98,33.98,5.00,0.00,
"CA001022688","1915-01-05",44.96,41.00,10.00,0.00,
"CA001022688","1915-01-06",46.94,42.08,15.00,0.00,
"CA001022688","1915-01-07",46.04,42.98,91.00,0.00,
"CA001022688","1915-01-08",44.06,42.98,160.00,0.00,
"CA001022688","1915-01-09",44.06,37.04,0.00,0.00,
"CA001022688","1915-01-10",46.94,39.02,287.00,0.00,
"CA001022688","1915-01-11",46.04,42.98,23.00,0.00,
"CA001022688","1915-01-12",42.98,37.94,30.00,0.00,
"CA001022688","1915-01-13",44.06,39.02,43.00,0.00,
"CA001022688","1915-01-14",42.98,37.94,127.00,0.00,
"CA001022688","1915-01-15",42.98,39.02,0.00,0.00,
"CA001022688","1915-01-16",39.92,35.96,0.00,0.00,
"CA001022688","1915-01-17",42.08,35.96,0.00,0.00,
"CA001022688","1915-01-18",44.06,33.98,0.00,0.00,
"CA001022688","1915-01-19",39.92,39.02,0.00,0.00,
"CA001022688","1915-01-20",39.92,35.96,0.00,0.00,
"CA001022688","1915-01-21",41.00,37.04,0.00,0.00,
"CA001022688","1915-01-22",39.02,32.00,0.00,0.00,
"CA001022688","1915-01-23",42.98,37.04,0.00,0.00,
"CA001022688","1915-01-24",44.96,35.96,0.00,0.00,
"CA001022688","1915-01-25",42.08,35.06,0.00,0.00,
"CA001022688","1915-01-26",41.00,33.08,0.00,0.00,
"CA001022688","1915-01-27",46.94,33.08,0.00,0.00,
"CA001022688","1915-01-28",41.00,35.06,0.00,0.00,
"CA001022688","1915-01-29",42.08,35.96,0.00,0.00,
"CA001022688","1915-01-30",48.92,39.02,0.00,0.00,
"CA001022688","1915-01-31",46.04,41.00,20.00,0.00,
"CA001022688","1915-02-01",48.92,42.98,119.00,0.00,
"CA001022688","1915-02-02",44.96,41.00,0.00,0.00,
"CA001022688","1915-02-03",46.94,42.08,3.00,0.00,
"CA001022688","1915-02-04",44.06,37.04,0.00,0.00,
"CA001022688","1915-02-05",46.04,37.94,147.00,0.00,
"CA001022688","1915-02-06",48.02,42.08,211.00,0.00,
"CA001022688","1915-02-07",51.98,44.96,0.00,0.00,
"CA001022688","1915-02-08",50.00,42.08,36.00,0.00,
"CA001022688","1915-02-09",48.92,44.06,0.00,0.00,
"CA001022688","1915-02-10",46.94,39.92,0.00,0.00,
"CA001022688","1915-02-11",44.06,41.00,0.00,0.00,
"CA001022688","1915-02-12",41.00,39.92,13.00,0.00,
"CA001022688","1915-02-13",42.08,37.04,25.00,0.00,
"CA001022688","1915-02-14",44.06,39.02,0.00,0.00,
"CA001022688","1915-02-15",46.04,41.00,0.00,0.00,
"CA001022688","1915-02-16",44.06,42.08,13.00,0.00,
"CA001022688","1915-02-17",44.06,37.94,10.00,0.00,
"CA001022688","1915-02-18",42.08,37.94,0.00,0.00,
"CA001022688","1915-02-19",44.06,35.06,0.00,0.00,
"CA001022688","1915-02-20",46.04,39.02,0.00,0.00,
"CA001022688","1915-02-21",44.96,42.08,25.00,0.00,
"CA001022688","1915-02-22",46.04,42.98,15.00,0.00,
"CA001022688","1915-02-23",46.94,42.98,5.00,0.00,
"CA001022688","1915-02-24",50.00,44.96,36.00,0.00,
"CA001022688","1915-02-25",46.04,39.92,0.00,0.00,
"CA001022688","1915-02-26",46.04,37.94,0.00,0.00,
"CA001022688","1915-02-27",48.02,42.08,0.00,0.00,
"CA001022688","1915-02-28",48.02,42.08,18.00,0.00,
"CA001022688","1915-03-01",48.02,42.08,0.00,0.00,
"CA001022688","1915-03-02",46.94,39.92,0.00,0.00,
"CA001022688","1915-03-03",44.96,42.98,79.00,0.00,
"CA001022688","1915-03-04",50.00,42.08,112.00,0.00,
"CA001022688","1915-03-05",46.04,42.98,0.00,0.00,
"CA001022688","1915-03-06",46.94,44.06,20.00,0.00,
"CA001022688","1915-03-07",50.00,42.08,0.00,0.00,
"CA001022688","1915-03-08",51.08,39.02,0.00,0.00,
"CA001022688","1915-03-09",46.94,39.02,0.00,0.00,
"CA001022688","1915-03-10",48.92,39.02,8.00,0.00,
"CA001022688","1915-03-11",46.04,42.98,0.00,0.00,
"CA001022688","1915-03-12",51.98,42.08,0.00,0.00,
"CA001022688","1915-03-13",50.00,46.04,0.00,0.00,
"CA001022688","1915-03-14",51.98,46.94,122.00,0.00,
"CA001022688","1915-03-15",55.04,46.94,36.00,0.00,
"CA001022688","1915-03-16",48.92,46.04,10.00,0.00,
"CA001022688","1915-03-17",55.94,46.04,41.00,0.00,
"CA001022688","1915-03-18",51.98,44.06,0.00,0.00,
"CA001022688","1915-03-19",51.98,39.92,0.00,0.00,
"CA001022688","1915-03-20",55.04,42.08,0.00,0.00,
"CA001022688","1915-03-21",53.96,42.98,0.00,0.00,
"CA001022688","1915-03-22",55.94,48.92,0.00,0.00,
"CA001022688","1915-03-23",53.96,46.94,0.00,0.00,
"CA001022688","1915-03-24",55.94,46.94,0.00,0.00,
"CA001022688","1915-03-25",57.02,46.94,0.00,0.00,
"CA001022688","1915-03-26",55.94,41.00,0.00,0.00,
"CA001022688","1915-03-27",53.96,42.98,0.00,0.00,
"CA001022688","1915-03-28",53.96,44.96,0.00,0.00,
"CA001022688","1915-03-29",50.00,48.02,84.00,0.00,
"CA001022688","1915-03-30",50.00,46.04,71.00,0.00,
"CA001022688","1915-03-31",51.08,44.96,25.00,0.00,
"CA001022688","1915-04-01",51.98,48.02,147.00,0.00,
"CA001022688","1915-04-02",51.08,48.92,99.00,0.00,
"CA001022688","1915-04-03",53.96,46.94,0.00,0.00,
"CA001022688","1915-04-04",51.98,44.06,0.00,0.00,
"CA001022688","1915-04-05",55.94,42.98,0.00,0.00,
"CA001022688","1915-04-06",53.96,42.98,0.00,0.00,
"CA001022688","1915-04-07",53.06,48.92,23.00,0.00,
"CA001022688","1915-04-08",51.08,42.98,0.00,0.00,
"CA001022688","1915-04-09",59.00,44.96,0.00,0.00,
"CA001022688","1915-04-10",53.96,46.04,0.00,0.00,
"CA001022688","1915-04-11",55.94,46.04,18.00,0.00,
"CA001022688","1915-04-12",55.04,48.92,36.00,0.00,
"CA001022688","1915-04-13",60.08,46.94,0.00,0.00,
"CA001022688","1915-04-14",55.94,42.08,0.00,0.00,
"CA001022688","1915-04-15",59.00,46.04,0.00,0.00,
"CA001022688","1915-04-16",64.94,48.92,0.00,0.00,
"CA001022688","1915-04-17",62.06,51.08,0.00,0.00,
"CA001022688","1915-04-18",60.98,51.08,0.00,0.00,
"CA001022688","1915-04-19",60.98,48.92,0.00,0.00,
"CA001022688","1915-04-20",55.94,44.96,0.00,0.00,
"CA001022688","1915-04-21",55.94,46.94,0.00,0.00,
"CA001022688","1915-04-22",59.00,46.04,0.00,0.00,
"CA001022688","1915-04-23",57.92,48.02,0.00,0.00,
"CA001022688","1915-04-24",57.02,50.00,0.00,0.00,
"CA001022688","1915-04-25",57.92,48.92,0.00,0.00,
"CA001022688","1915-04-26",59.00,48.02,0.00,0.00,
"CA001022688","1915-04-27",57.02,48.02,0.00,0.00,
"CA001022688","1915-04-28",55.94,44.96,0.00,0.00,
"CA001022688","1915-04-29",53.06,44.96,0.00,0.00,
"CA001022688","1915-04-30",53.96,42.08,0.00,0.00,
"CA001022688","1915-05-01",55.94,46.04,0.00,0.00,
"CA001022688","1915-05-02",66.02,51.08,0.00,0.00,
"CA001022688","1915-05-03",62.96,51.98,0.00,0.00,
"CA001022688","1915-05-04",68.00,51.08,0.00,0.00,
"CA001022688","1915-05-05",66.02,53.96,0.00,0.00,
"CA001022688","1915-05-06",64.04,53.06,0.00,0.00,
"CA001022688","1915-05-07",57.02,51.98,0.00,0.00,
"CA001022688","1915-05-08",57.02,50.00,0.00,0.00,
"CA001022688","1915-05-09",53.06,51.08,71.00,0.00,
"CA001022688","1915-05-10",55.04,51.08,28.00,0.00,
"CA001022688","1915-05-11",57.02,48.92,0.00,0.00,
"CA001022688","1915-05-12",60.08,50.00,0.00,0.00,
"CA001022688","1915-05-13",57.92,51.08,15.00,0.00,
"CA001022688","1915-05-14",53.96,50.00,30.00,0.00,
"CA001022688","1915-05-15",57.02,48.02,0.00,0.00,
"CA001022688","1915-05-16",60.08,48.02,0.00,0.00,
"CA001022688","1915-05-17",60.08,53.96,20.00,0.00,
"CA001022688","1915-05-18",62.06,53.06,10.00,0.00,
"CA001022688","1915-05-19",57.02,53.96,0.00,0.00,
"CA001022688","1915-05-20",55.94,53.06,25.00,0.00,
"CA001022688","1915-05-21",57.02,50.00,0.00,0.00,
"CA001022688","1915-05-22",59.00,51.08,28.00,0.00,
"CA001022688","1915-05-23",57.92,51.08,0.00,0.00,
"CA001022688","1915-05-24",57.92,53.06,0.00,0.00,
"CA001022688","1915-05-25",55.04,51.08,33.00,0.00,
"CA001022688","1915-05-26",55.04,51.08,41.00,0.00,
"CA001022688","1915-05-27",57.02,51.98,56.00,0.00,
"CA001022688","1915-05-28",60.98,48.92,15.00,0.00,
"CA001022688","1915-05-29",60.98,48.92,0.00,0.00,
"CA001022688","1915-05-30",62.06,48.92,0.00,0.00,
"CA001022688","1915-05-31",57.92,53.06,18.00,0.00,
"CA001022688","1915-06-01",66.02,50.00,0.00,0.00,
"CA001022688","1915-06-02",64.94,53.96,0.00,0.00,
"CA001022688","1915-06-03",66.92,55.04,0.00,0.00,
"CA001022688","1915-06-04",71.06,64.94,0.00,0.00,
"CA001022688","1915-06-05",71.06,60.08,0.00,0.00,
"CA001022688","1915-06-06",68.00,60.08,0.00,0.00,
"CA001022688","1915-06-07",62.06,55.04,0.00,0.00,
"CA001022688","1915-06-08",64.94,55.04,0.00,0.00,
"CA001022688","1915-06-09",62.96,53.06,0.00,0.00,
"CA001022688","1915-06-10",68.00,51.98,0.00,0.00,
"CA001022688","1915-06-11",62.96,51.98,0.00,0.00,
"CA001022688","1915-06-12",60.08,55.04,0.00,0.00,
"CA001022688","1915-06-13",66.02,53.96,0.00,0.00,
"CA001022688","1915-06-14",66.92,55.04,0.00,0.00,
"CA001022688","1915-06-15",68.00,57.92,0.00,0.00,
"CA001022688","1915-06-16",71.96,57.92,0.00,0.00,
"CA001022688","1915-06-17",59.00,57.02,0.00,0.00,
"CA001022688","1915-06-18",64.04,53.96,38.00,0.00,
"CA001022688","1915-06-19",62.06,55.04,99.00,0.00,
"CA001022688","1915-06-20",64.04,55.94,0.00,0.00,
"CA001022688","1915-06-21",66.02,53.06,0.00,0.00,
"CA001022688","1915-06-22",69.08,55.94,0.00,0.00,
"CA001022688","1915-06-23",60.98,55.94,0.00,0.00,
"CA001022688","1915-06-24",60.98,53.06,0.00,0.00,
"CA001022688","1915-06-25",66.92,51.08,0.00,0.00,
"CA001022688","1915-06-26",69.08,51.98,0.00,0.00,
"CA001022688","1915-06-27",69.98,59.00,0.00,0.00,
"CA001022688","1915-06-28",71.96,57.92,0.00,0.00,
"CA001022688","1915-06-29",75.92,60.08,0.00,0.00,
"CA001022688","1915-06-30",73.94,62.96,0.00,0.00,
"CA001022688","1915-07-01",80.06,64.04,0.00,0.00,
"CA001022688","1915-07-02",77.00,64.04,0.00,0.00,
"CA001022688","1915-07-03",71.06,64.04,0.00,0.00,
"CA001022688","1915-07-04",69.98,62.06,0.00,0.00,
"CA001022688","1915-07-05",64.04,59.00,0.00,0.00,
"CA001022688","1915-07-06",64.94,57.02,0.00,0.00,
"CA001022688","1915-07-07",68.00,55.04,0.00,0.00,
"CA001022688","1915-07-08",69.08,57.92,0.00,0.00,
"CA001022688","1915-07-09",66.02,57.02,0.00,0.00,
"CA001022688","1915-07-10",66.92,57.02,0.00,0.00,
"CA001022688","1915-07-11",62.06,57.92,23.00,0.00,
"CA001022688","1915-07-12",64.04,57.02,0.00,0.00,
"CA001022688","1915-07-13",62.96,53.96,0.00,0.00,
"CA001022688","1915-07-14",62.96,57.92,33.00,0.00,
"CA001022688","1915-07-15",62.06,57.92,0.00,0.00,
"CA001022688","1915-07-16",73.04,57.02,0.00,0.00,
"CA001022688","1915-07-17",64.94,59.00,0.00,0.00,
"CA001022688","1915-07-18",71.06,57.02,0.00,0.00,
"CA001022688","1915-07-19",75.92,59.00,0.00,0.00,
"CA001022688","1915-07-20",80.06,64.94,0.00,0.00,
"CA001022688","1915-07-21",73.94,66.02,0.00,0.00,
"CA001022688","1915-07-22",75.02,60.98,0.00,0.00,
"CA001022688","1915-07-23",73.94,62.06,0.00,0.00,
"CA001022688","1915-07-24",75.02,60.98,0.00,0.00,
"CA001022688","1915-07-25",69.08,60.98,0.00,0.00,
"CA001022688","1915-07-26",66.92,60.08,5.00,0.00,
"CA001022688","1915-07-27",66.02,60.98,0.00,0.00,
"CA001022688","1915-07-28",69.98,59.00,0.00,0.00,
"CA001022688","1915-07-29",73.94,60.98,0.00,0.00,
"CA001022688","1915-07-30",68.00,62.06,0.00,0.00,
"CA001022688","1915-07-31",64.04,57.92,0.00,0.00,
"CA001022688","1915-08-01",68.00,57.92,0.00,0.00,
"CA001022688","1915-08-02",66.92,59.00,0.00,0.00,
"CA001022688","1915-08-03",62.96,57.92,0.00,0.00,
"CA001022688","1915-08-04",69.98,57.02,3.00,0.00,
"CA001022688","1915-08-05",73.04,57.92,0.00,0.00,
"CA001022688","1915-08-06",69.08,62.06,0.00,0.00,
"CA001022688","1915-08-07",68.00,62.96,0.00,0.00,
"CA001022688","1915-08-08",69.08,60.98,0.00,0.00,
"CA001022688","1915-08-09",69.98,60.08,0.00,0.00,
"CA001022688","1915-08-10",69.98,60.08,0.00,0.00,
"CA001022688","1915-08-11",66.02,62.06,0.00,0.00,
"CA001022688","1915-08-12",75.02,62.06,0.00,0.00,
"CA001022688","1915-08-13",75.02,64.04,0.00,0.00,
"CA001022688","1915-08-14",73.94,60.98,0.00,0.00,
"CA001022688","1915-08-15",73.04,59.00,0.00,0.00,
"CA001022688","1915-08-16",66.02,59.00,0.00,0.00,
"CA001022688","1915-08-17",69.98,62.96,0.00,0.00,
"CA001022688","1915-08-18",71.96,62.96,0.00,0.00,
"CA001022688","1915-08-19",78.98,64.04,0.00,0.00,
"CA001022688","1915-08-20",78.98,66.92,0.00,0.00,
"CA001022688","1915-08-21",82.04,68.00,0.00,0.00,
"CA001022688","1915-08-22",75.92,62.06,0.00,0.00,
"CA001022688","1915-08-23",75.02,64.94,0.00,0.00,
"CA001022688","1915-08-24",66.02,60.98,0.00,0.00,
"CA001022688","1915-08-25",69.08,57.92,0.00,0.00,
"CA001022688","1915-08-26",66.92,62.06,0.00,0.00,
"CA001022688","1915-08-27",69.98,60.08,0.00,0.00,
"CA001022688","1915-08-28",73.94,60.08,0.00,0.00,
"CA001022688","1915-08-29",73.04,60.98,0.00,0.00,
"CA001022688","1915-08-30",73.94,60.98,76.00,0.00,
"CA001022688","1915-08-31",64.04,55.94,0.00,0.00,
"CA001022688","1915-09-01",68.00,57.92,5.00,0.00,
"CA001022688","1915-09-02",68.00,53.96,0.00,0.00,
"CA001022688","1915-09-03",73.04,57.92,0.00,0.00,
"CA001022688","1915-09-04",71.06,59.00,0.00,0.00,
"CA001022688","1915-09-05",66.02,57.92,0.00,0.00,
"CA001022688","1915-09-06",64.94,57.02,0.00,0.00,
"CA001022688","1915-09-07",59.00,55.94,0.00,0.00,
"CA001022688","1915-09-08",62.06,53.96,0.00,0.00,
"CA001022688","1915-09-09",64.94,57.02,0.00,0.00,
"CA001022688","1915-09-10",66.92,55.94,0.00,0.00,
"CA001022688","1915-09-11",68.00,60.08,0.00,0.00,
"CA001022688","1915-09-12",66.02,55.04,0.00,0.00,
"CA001022688","1915-09-13",60.08,55.94,0.00,0.00,
"CA001022688","1915-09-14",60.08,57.02,0.00,0.00,
"CA001022688","1915-09-15",66.02,57.02,0.00,0.00,
"CA001022688","1915-09-16",68.00,59.00,0.00,0.00,
"CA001022688","1915-09-17",66.02,57.92,0.00,0.00,
"CA001022688","1915-09-18",69.08,59.00,0.00,0.00,
"CA001022688","1915-09-19",64.94,57.92,0.00,0.00,
"CA001022688","1915-09-20",68.00,59.00,0.00,0.00,
"CA001022688","1915-09-21",64.94,57.92,0.00,0.00,
"CA001022688","1915-09-22",66.02,57.02,0.00,0.00,
"CA001022688","1915-09-23",64.04,55.04,0.00,0.00,
"CA001022688","1915-09-24",64.94,55.04,0.00,0.00,
"CA001022688","1915-09-25",62.06,53.06,0.00,0.00,
"CA001022688","1915-09-26",57.92,53.96,0.00,0.00,
"CA001022688","1915-09-27",62.96,53.96,0.00,0.00,
"CA001022688","1915-09-28",60.08,53.06,0.00,0.00,
"CA001022688","1915-09-29",60.08,53.96,0.00,0.00,
"CA001022688","1915-09-30",59.00,55.04,0.00,0.00,
"CA001022688","1915-10-01",60.98,53.96,0.00,0.00,
"CA001022688","1915-10-02",57.92,51.08,112.00,0.00,
"CA001022688","1915-10-03",59.00,51.98,0.00,0.00,
"CA001022688","1915-10-04",55.04,46.94,0.00,0.00,
"CA001022688","1915-10-05",57.92,51.08,0.00,0.00,
"CA001022688","1915-10-06",57.92,50.00,0.00,0.00,
"CA001022688","1915-10-07",57.92,46.94,0.00,0.00,
"CA001022688","1915-10-08",59.00,50.00,0.00,0.00,
"CA001022688","1915-10-09",57.02,51.98,0.00,0.00,